Location: Eindhoven
(51.4416°N, 5.4697°E)
Time: 13:29:29
(UTC+01:00)

deb Explorer IX - Pass Details

Date: 24 November 2019
Orbit: 546 x 1104 km, 38.8° (Epoch: 15 December)

Event Time Altitude Azimuth Distance (km) Brightness Sun altitude
Rises 03:07:32 0° 257° (WSW) 3,718 - -45.7°
Reaches altitude 10° 03:10:57 10° 242° (WSW) 2,674 - -45.2°
Maximum altitude 03:15:34 21° 196° (SSW) 1,856 - -44.6°
Drops below altitude 10° 03:19:45 10° 149° (SSE) 2,380 - -44.0°
Sets 03:22:36 0° 133° (SE) 3,202 - -43.6°
